Regional Weather Roundup
Issued by NWS

Home | Current Version | Previous Version | Text Only | Print | Product List | Glossary On
Versions: 1 2 3 4 5 6 7 8 9 10 11 12 13 14 15 16 17 18 19 20 21 22 23 24 25 26 27 28 29 30 31 32 33 34 35 36 37 38 39
000
ASUS45 KBOU 211307
RWRCO

WEATHER ROUNDUP FOR COLORADO
NATIONAL WEATHER SERVICE DENVER/BOULDER CO
700 AM MDT TUE OCT 21 2014

NOTE: "FAIR" INDICATES FEW OR NO CLOUDS BELOW 12000 FEET WITH NO
SIGNIFICANT WEATHER AND/OR OBSTRUCTIONS TO VISIBILITY.

COZ001>005-013-030-031-211400-
...NORTHWEST COLORADO...

CITY           SKY/WX    TMP DP  RH WIND       PRES   REMARKS
CRAIG          MOCLDY    36  32  85 SW5       30.11S
HAYDEN         NOT AVBL
MEEKER         CLOUDY    43  35  73 E5        30.12S
MOUNT WERNER   NOT AVBL
STEAMBOAT SPGS PTCLDY    36  33  90 CALM      30.14S
WALDEN         CLOUDY    34  30  86 E8        30.18F WCI  27
$$

COZ006>008-011-211400-
...WEST CENTRAL VALLEYS...

CITY           SKY/WX    TMP DP  RH WIND       PRES   REMARKS
GRAND JUNCTION CLOUDY    56  37  49 E15       30.04S
MONTROSE       CLOUDY    52  37  56 E5        30.13S
EAGLE          MOCLDY    39  37  93 MISG      30.18F
RIFLE          CLOUDY    44  37  76 SW3       30.10S
DELTA          MOCLDY    55  42  63 E5        30.09F
NUCLA          NOT AVBL
$$

COZ017>023-064>068-211400-
...SOUTHWEST COLORADO...

CITY           SKY/WX    TMP DP  RH WIND       PRES   REMARKS
DURANGO        CLOUDY    49  44  83 CALM      30.19S
CORTEZ         MOCLDY    52  42  69 W5        30.13S
PAGOSA SPRINGS MOCLDY    45  42  90 CALM      30.24F
TELLURIDE      CLOUDY    46  38  76 E6        30.28S
WOLF CREEK PAS FOG       32  32 100 SW9       30.39F VSB 1/4 WCI  24
$$

COZ009-010-012-014-032>034-037-058>063-211400-
...CENTRAL COLORADO...

CITY           SKY/WX    TMP DP  RH WIND       PRES   REMARKS
ASPEN          MOCLDY    41  34  76 SW3       30.19S
BUENA VISTA    MOCLDY    36  32  84 NW5       30.24S
COPPER MTN     PTCLDY    37  28  70 S16       30.38F
BERTHOUD PASS  FAIR      32  30  93 W8        30.42F WCI  25
COTTONWOOD PAS CLOUDY    43  32  65 CALM      30.30F
GUNNISON       MOCLDY    36  28  75 CALM      30.26S
KREMMLING      CLOUDY    30  27  86 CALM        N/A
LEADVILLE      CLOUDY    29  27  92 NE3       30.29F
MONARCH PASS   CLOUDY    34  30  86 SW14      30.48F WCI  24
SALIDA         MOCLDY    41  33  73 NW9       30.29F
SUNLIGHT       PTCLDY    39  34  81 CALM      30.32S
WILKERSON PASS NOT AVBL
$$

COZ069>075-211400-
...SAN LUIS VALLEY/SANGRE DE CRISTO MOUNTAINS...

CITY           SKY/WX    TMP DP  RH WIND       PRES   REMARKS
ALAMOSA        PTCLDY    29  27  92 CALM      30.24R
LA VETA PASS   CLEAR     34  32  93 SW7       30.31S WCI  28
SAGUACHE       PTCLDY    36  32  87 NW7       30.26R
$$

COZ035-036-038>040-211400-
...NORTHERN COLORADO FRONT RANGE...

CITY           SKY/WX    TMP DP  RH WIND       PRES   REMARKS
DENVER INTL AP PTCLDY    50  36  58 SW10      30.03S
DMNS CITY PARK   N/A     50  37  61 S6        30.03S
AURORA         PTCLDY    52  36  54 S10       30.05S
FRONT RANGE AP NOT AVBL
ERIE MUNI ARPT PTCLDY    42  38  86 CALM      30.02F
BOULDER MUN AP PTCLDY    46  37  71 S3        30.02F
CENTENNIAL     PTCLDY    51  36  56 S8        30.06S
BROOMFIELD     PTCLDY    54  36  50 CALM      30.04F
FORT COLLINS   CLEAR     46  39  76 W5        30.03S
LONGMONT       CLEAR     41  36  80 CALM      30.03F
$$

COZ041-046-047-076>085-087-088-211400-
...PIKES PEAK/PALMER DIVIDE AND SOUTHERN FOOTHILLS...

CITY           SKY/WX    TMP DP  RH WIND       PRES   REMARKS
COLO. SPRINGS  PTCLDY    42  37  82 N6        30.11S
A. F. ACADEMY  PTCLDY    38  35  89 NW6       30.11F
ELLICOTT       CLEAR     42  38  85 NE5       30.09F
FALCON         CLEAR     42  35  77 NW5       30.14S
FORT CARSON    PTCLDY    45  40  82 NW5       30.09R
LIMON          FOG       35  35 100 CALM      30.08S VSB 1/2
MONUMENT HILL  CLEAR     46  34  61 SW12      30.12F
TRINIDAD       CLEAR     49  40  71 W7        30.12S
$$

COZ042>045-048>051-090-091-211400-
...NORTHEAST COLORADO...

CITY           SKY/WX    TMP DP  RH WIND       PRES   REMARKS
GREELEY ARPT   CLEAR     37  28  70 NW5       30.02S
AKRON          CLEAR     50  47  89 S10       30.01F
BURLINGTON     CLEAR     50  48  93 S10       30.06S FOG
WRAY           CLEAR     55  51  88 S14       30.01F
STERLING       CLEAR     43  41  93 W5        29.99S
HOLYOKE        CLEAR     52  46  82 S7        30.01S
FORT MORGAN    CLEAR     44  42  92 CALM      30.01S
$$

COZ086-089-092>099-211400-
...SOUTHEAST COLORADO...

CITY           SKY/WX    TMP DP  RH WIND       PRES   REMARKS
PUEBLO         PTCLDY    40  37  89 CALM      30.07R
LA JUNTA       CLEAR     46  42  86 W8        30.06S
LAMAR          CLEAR     42  42 100 CALM      30.04R FOG
SPRINGFIELD      N/A     47  45  93 W8        30.09R
$$


USA.gov is the U.S. government's official web portal to all federal, state and local government web resources and services.